Home > Weather > Curitiba > Past weeks

Flag for Brazil Past Weather in Curitiba, Paraná, Brazil — Yesterday and Last 2 Weeks

Now
54 °F

Passing clouds.


Feels Like: 52 °F
Forecast: N/A
Wind: 7 mph from Southeast

Location: Curitiba Aeroporto

Current Time: Jun 24, 2016 at 7:15:05 PM

Latest Report: Jun 24, 2016 at 6:00 PM


Visibility: N/A

Pressure: 30.27 "Hg (27.13 "Hg at 915m altitude)

Humidity: 88%

Dew Point: 50 °F

Location of CuritibaLocation

Past Weather in Curitiba — Graph

°F

Curitiba Temperature Yesterday

Maximum temperature yesterday: 61 °F (at 3:00 PM)
Minimum temperature yesterday: 48 °F (at 5:00 AM)
Average temperature yesterday: 52 °F

High & Low Weather Summary for the Past Weeks

 TemperatureHumidityPressure
High75 °F (Jun 16, 2:00 PM)100% (Jun 10, 3:00 AM)30.45 "Hg (Jun 10, 3:00 AM)
Low30 °F (Jun 12, 7:00 AM)24% (Jun 11, 4:00 PM)30.09 "Hg (Jun 17, 3:00 PM)
Average51 °F82%30.27 "Hg
* Reported Jun 9 6:00 PM — Jun 24 6:00 PM, Curitiba, Weather by CustomWeather, © 2016

Note: Actual official high and low records may vary slightly from our data, if they occured in-between our weather recording intervals... More about our weather records

Advertising

Curitiba Weather History for the Previous 24 Hours

Scroll right to see more
 ConditionsComfort  
Time TempWeatherWind HumidityBarometerVisibility
6:00 PM
Fri, Jun 24
54 °FPassing clouds.7 mph88%30.27 "HgN/A
5:00 PM57 °FPassing clouds.5 mph67%30.27 "HgN/A
4:00 PM61 °FPassing clouds.5 mph59%30.27 "HgN/A
3:00 PM61 °FPassing clouds.7 mph59%30.27 "HgN/A
2:00 PM57 °FScattered clouds.3 mph72%30.27 "HgN/A
1:00 PM57 °FPartly sunny.3 mph72%30.30 "HgN/A
12:00 PM54 °FPartly sunny.5 mph82%30.30 "HgN/A
11:00 AM52 °FMore clouds than sun.3 mph88%30.33 "Hg4 mi
10:00 AM48 °FFog.5 mph100%30.33 "Hg3 mi
9:00 AM48 °FFog.5 mph100%30.30 "Hg3 mi
8:00 AM48 °FFog.2 mph94%30.30 "Hg3 mi
7:00 AM46 °FFog.3 mph100%30.27 "Hg2 mi
6:00 AM46 °FFog.5 mph100%N/A1 mi
4:00 AM48 °FFog.2 mph100%30.24 "Hg2 mi
3:00 AM48 °FFog.2 mph100%30.24 "Hg2 mi
2:00 AM48 °FFog.6 mph100%30.27 "Hg2 mi
1:00 AM48 °FFog.2 mph100%30.27 "Hg2 mi
12:00 AM48 °FFog.2 mph100%30.27 "Hg2 mi
11:00 PM
Thu, Jun 23
50 °FFog.5 mph100%30.24 "Hg2 mi
10:00 PM48 °FFog.5 mph100%N/A1 mi
9:00 PM48 °FFog.2 mph100%N/A0 mi
8:00 PM50 °FFog.6 mph94%30.24 "Hg1 mi
7:00 PM52 °FPassing clouds.6 mph88%30.24 "HgN/A
Weather by CustomWeather, © 2016

See weather overviewHow to use our weather pages